Back to catalog

STARLINK-30936

AliveCommunicationsVLEO
NORAD 58534·PAYLOAD·🇺🇸 United States

Launched Dec 8, 2023 from Vandenberg Space Force Base

Loading…

Next Passes (next 24 hours)

TLE

FreshSource: CelesTrak SupGP

Epoch: Sep 14, 2026, 13:40 UTC

1 58534C 23192D   26257.56993056 -.00013617  00000+0 -43796-3 0  2575
2 58534  53.1575 254.0842 0001313  84.8165 279.7057 15.31702629    12

Track STARLINK-30936 in real time with AllMySat

Download on the App Store